Tracking 18785 objects as of 19-August-2017
HD Live streaming from Space Station
objects crossing your sky now

CHUBUSAT-1

Track CHUBUSAT-1 now!
10-day predictions
CHUBUSAT-1 is classified as:


NORAD ID: 40300
Int'l Code: 2014-070C
Perigee: 497.0 km
Apogee: 523.2 km
Inclination: 97.4 °
Period: 94.7 minutes
Semi major axis: 6881 km
RCS: Unknown
Launch date: November 6, 2014
Source: Japan (JPN)
Launch site: Orenburg, Russia (OREN)
Uplink (MHz): 145.980
Downlink (MHz): 437.485
Beacon (MHz): 437.485
Mode: 1200bps 9600bps CW
Call sign: JJ2YJY
Status: Inactive


CHUBUSAT-1 is a 110-pound (50-kg) satellite that was designed by Nagoya University in Japan and carries optical and infrared cameras to observe Earth and space debris.
Your satellite tracking list
Your tracking list is empty





NASA's NSSDC Master Catalog

Two Line Element Set (TLE):
1 40300U 14070C   17231.11854634  .00000569  00000-0  28746-4 0  9996
2 40300  97.3930 309.8574 0019042 239.0526 208.5341 15.20947994154350
Source of the keplerian elements: Caltech